Weather History for Cut Bank, MT

Change the Weather History Date:

Sunday, December 8, 2013

  Actual Average Record
Temperature  
Mean Temperature -4 °F 23 °F  
Max Temperature 11 °F 33 °F 58 °F (2006)
Min Temperature -20 °F 13 °F -34 °F (1972)
Degree Days  
Heating Degree Days 69 42  
Month to date heating degree days 525 330  
Since 1 July heating degree days 2614 2593  
Cooling Degree Days 0 0  
Month to date cooling degree days 0 0  
Year to date cooling degree days 226 162  
Moisture  
Dew Point -4 °F    
Average Humidity 66    
Maximum Humidity 77    
Minimum Humidity 55    
Precipitation  
Precipitation T in 0.01 in 0.18 in (1973)
Month to date precipitation 0.02 0.06  
Year to date precipitation 14.43 10.74  
Snow  
Snow 0.00 in - - ()
Snow Depth 3.00 in    
Sea Level Pressure  
Sea Level Pressure 30.19 in    
Wind  
Wind Speed 19 mph (West)    
Max Wind Speed 36 mph    
Max Gust Speed 42 mph    
Visibility 9 miles    
Events Snow    
T = Trace of Precipitation, MM = Missing Value Source: NWS Daily Summary

Daily Weather History Graph

Daily Weather History Graph

Search for Another Location

Airport:

Trip Planner

Search our weather history database for the weather conditions in past years. The results will help you decide how hot, cold, wet, or windy it might be!

Date:

Astronomy

Dec. 08, 2013 Rise Set
Actual Time 8:09 AM MST 4:33 PM MST
Civil Twilight 7:32 AM MST 5:10 PM MST
Nautical Twilight 6:52 AM MST 5:50 PM MST
Astronomical Twilight 6:14 AM MST 6:28 PM MST
Moon 12:07 PM MST (12/8) 11:53 PM MST (12/8)
Length of Visible Light 9h 38m
Length of Day
8h 24m
Waxing Crescent, 40% of the Moon is Illuminated
Dec 8
Waxing Crescent
Dec 9
First Quarter
Dec 17
Full
Dec 25
Last Quarter
Jan 1
New

Hourly Weather History & Observations

Time (MST) Temp. Windchill Dew Point Humidity Pressure Visibility Wind Dir Wind Speed Gust Speed Precip Events Conditions
12:56 AM -6.0 °F -21.5 °F -15.0 °F 65% 30.18 in 10.0 mi West 8.1 mph - N/A   Partly Cloudy
1:56 AM 1.0 °F -16.6 °F -9.9 °F 60% 30.14 in 10.0 mi West 12.7 mph - N/A   Overcast
2:56 AM 3.9 °F -16.1 °F -8.0 °F 58% 30.12 in 10.0 mi West 18.4 mph - N/A   Overcast
3:56 AM 6.1 °F -12.2 °F -7.1 °F 55% 30.11 in 10.0 mi West 16.1 mph - N/A   Overcast
4:56 AM 6.1 °F -9.5 °F -6.0 °F 58% 30.14 in 10.0 mi West 11.5 mph - N/A   Overcast
5:56 AM 5.0 °F -13.0 °F -6.0 °F 61% 30.17 in 10.0 mi West 15.0 mph - N/A   Overcast
6:56 AM 7.0 °F -12.1 °F -4.0 °F 61% 30.17 in 10.0 mi West 18.4 mph - N/A   Overcast
7:56 AM 6.1 °F -15.7 °F -2.9 °F 67% 30.19 in 10.0 mi West 24.2 mph 28.8 mph N/A   Overcast
8:56 AM 5.0 °F -17.5 °F -4.0 °F 66% 30.23 in 10.0 mi West 25.3 mph - N/A   Overcast
9:56 AM 6.1 °F -13.8 °F -2.0 °F 69% 30.25 in 8.0 mi West 19.6 mph - N/A   Overcast
10:56 AM 8.1 °F -10.7 °F -2.0 °F 64% 30.28 in 10.0 mi West 18.4 mph - N/A   Overcast
11:56 AM 10.9 °F -7.5 °F 1.9 °F 67% 30.29 in 10.0 mi WNW 19.6 mph - N/A   Overcast
12:28 PM 10.9 °F -9.2 °F 5.0 °F 77% 30.02 in 2.0 mi NNW 24.2 mph 27.6 mph 0.00 in Snow Light Snow
12:33 PM 10.0 °F -10.0 °F 3.0 °F 73% 30.02 in 3.0 mi NNW 23.0 mph 29.9 mph 0.00 in Snow Light Snow
12:48 PM 9.0 °F -11.4 °F 3.0 °F 77% 30.03 in 6.0 mi NW 23.0 mph 29.9 mph 0.00 in   Haze
12:56 PM 9.0 °F -11.0 °F 1.0 °F 70% 30.28 in 10.0 mi NW 21.9 mph - 0.00 in   Overcast
1:56 PM 8.1 °F -11.7 °F -0.0 °F 70% 30.27 in 10.0 mi NW 20.7 mph - N/A   Mostly Cloudy
2:56 PM 6.1 °F -12.8 °F -2.0 °F 69% 30.28 in 10.0 mi NW 17.3 mph 25.3 mph N/A   Scattered Clouds
3:56 PM 6.1 °F -10.9 °F -2.0 °F 69% 30.30 in 10.0 mi WNW 13.8 mph - N/A   Overcast
4:56 PM 3.0 °F -16.1 °F -4.0 °F 73% 30.30 in 10.0 mi West 16.1 mph - N/A   Overcast
5:56 PM 1.9 °F -20.2 °F -9.9 °F 58% 30.30 in 10.0 mi West 21.9 mph - N/A   Mostly Cloudy
6:56 PM 1.9 °F -17.5 °F -9.9 °F 58% 30.26 in 10.0 mi West 16.1 mph 25.3 mph N/A   Overcast
7:56 PM 1.0 °F -18.7 °F -9.9 °F 60% 30.25 in 10.0 mi West 16.1 mph - N/A   Clear
8:56 PM 1.9 °F -18.7 °F -9.0 °F 60% 30.22 in 10.0 mi West 18.4 mph - N/A   Partly Cloudy
9:56 PM 3.0 °F -18.3 °F -7.1 °F 63% 30.19 in 10.0 mi WSW 20.7 mph - N/A   Mostly Cloudy
10:56 PM 5.0 °F -17.9 °F -4.0 °F 66% 30.14 in 10.0 mi WSW 26.5 mph 36.8 mph N/A   Mostly Cloudy
11:56 PM 6.1 °F -17.2 °F -5.1 °F 60% 30.11 in 10.0 mi WSW 28.8 mph 34.5 mph N/A   Partly Cloudy